Location: Newark
(47.5000°N, 4.6167°E)
Time: 04:14:33
(UTC+00:00)

X-37B - Pass Details

Date: 15 December 2021
Orbit: 334 x 337 km, 45.0° (Epoch: 11 January)

Event Time Altitude Azimuth Distance (km) Brightness Sun altitude
Rises 18:20:03 0° 273° (W) 2,106 5.6 -24.1°
Reaches altitude 10° 18:22:15 10° 258° (WSW) 1,267 4.3 -24.4°
Enters shadow 18:23:30 19° 238° (WSW) 890 3.1 -24.6°
